User: anonymous   Login
Location: Plum
(40.5000°N, 79.7500°W)
Time: 11:54:13
(UTC-04:00)
Language:

Cosmos 1825 - Orbit

View from above orbital plane
View from above orbital plane
View from above satellite
View from above satellite

Ground track
Ground track

The orbit data is extracted from the following two-line orbital elements,

1 17566U 87024A   16119.68606129  .00001638  00000-0  79795-4 0  9991
2 17566  82.5051 340.8006 0003216 194.7421 165.3720 15.17681663590955
Epoch (UTC): 28 April 2016 16:27:55
Eccentricity: 0.0003216
inclination: 82.5051°
perigee height: 510 km
apogee height: 515 km
right ascension of ascending node: 340.8006°
argument of perigee: 194.7421°
revolutions per day: 15.17681663
mean anomaly at epoch: 165.3720°
orbit number at epoch: 59095

The dashed part of the orbit path shows where the satellite is in the earth's shadow,  

DLR